ERT950 HHAS-HSSK

Flight info

Callsign ERT950
Flight time 1h 5m
Altitude 36000
Route ASM UB526 KSL Y866 DENDI DCT TABKO TABKO1B
Aircraft B762/H-SDFGIRWY/S

Departure

Time 2026-05-08 17:38
Airport Asmara International Airport (HHAS)

Arrival

Time 2026-05-08 18:43
Airport Khartoum International Airport (HSSK)
Time Latitude Longitude Altitude Speed Heading
2026-05-08 17:17 15.29489 38.90762 7535 ft 0 kts 277°
2026-05-08 17:26 15.29489 38.90761 7534 ft 0 kts 277°
2026-05-08 17:27 15.29491 38.90743 7534 ft 3 kts 277°
2026-05-08 17:27 15.29490 38.90719 7534 ft 2 kts 252°
2026-05-08 17:27 15.29486 38.90713 7534 ft 1 kts 232°
2026-05-08 17:27 15.29479 38.90704 7535 ft 2 kts 227°
2026-05-08 17:28 15.29474 38.90702 7535 ft 0 kts 202°
2026-05-08 17:28 15.29466 38.90701 7535 ft 2 kts 188°
2026-05-08 17:28 15.29443 38.90699 7535 ft 4 kts 187°
2026-05-08 17:28 15.29413 38.90694 7535 ft 4 kts 188°
2026-05-08 17:29 15.29384 38.90690 7535 ft 4 kts 187°
2026-05-08 17:29 15.29353 38.90687 7535 ft 4 kts 176°
2026-05-08 17:29 15.29336 38.90703 7535 ft 3 kts 116°
2026-05-08 17:29 15.29330 38.90723 7536 ft 2 kts 107°
2026-05-08 17:30 15.29323 38.90754 7536 ft 6 kts 103°
2026-05-08 17:30 15.29290 38.90781 7537 ft 7 kts 172°
2026-05-08 17:30 15.29224 38.90773 7537 ft 11 kts 190°
2026-05-08 17:30 15.29132 38.90759 7537 ft 15 kts 187°
2026-05-08 17:31 15.29012 38.90744 7539 ft 17 kts 186°
2026-05-08 17:31 15.28895 38.90756 7539 ft 15 kts 165°
2026-05-08 17:31 15.28802 38.90784 7539 ft 11 kts 152°
2026-05-08 17:31 15.28793 38.90839 7539 ft 7 kts 73°
2026-05-08 17:32 15.28809 38.90894 7540 ft 8 kts 74°
2026-05-08 17:32 15.28827 38.90962 7541 ft 10 kts 74°
2026-05-08 17:32 15.28850 38.91045 7542 ft 13 kts 74°
2026-05-08 17:32 15.28879 38.91151 7541 ft 17 kts 75°
2026-05-08 17:33 15.28912 38.91278 7543 ft 19 kts 75°
2026-05-08 17:33 15.28951 38.91418 7545 ft 20 kts 73°
2026-05-08 17:33 15.28993 38.91568 7546 ft 23 kts 74°
2026-05-08 17:33 15.29040 38.91738 7546 ft 25 kts 74°
2026-05-08 17:34 15.29089 38.91917 7549 ft 24 kts 75°
2026-05-08 17:34 15.29134 38.92049 7554 ft 13 kts 54°
2026-05-08 17:34 15.29183 38.92101 7556 ft 7 kts 43°
2026-05-08 17:34 15.29199 38.92128 7557 ft 2 kts 79°
2026-05-08 17:35 15.29201 38.92142 7558 ft 1 kts 88°
2026-05-08 17:35 15.29200 38.92149 7558 ft 0 kts 107°
2026-05-08 17:35 15.29190 38.92162 7559 ft 3 kts 148°
2026-05-08 17:35 15.29156 38.92153 7558 ft 7 kts 221°
2026-05-08 17:36 15.29141 38.92122 7557 ft 0 kts 256°
2026-05-08 17:36 15.29139 38.92115 7557 ft 9 kts 256°
2026-05-08 17:36 15.29070 38.91847 7548 ft 67 kts 254°
2026-05-08 17:37 15.28896 38.91210 7542 ft 117 kts 254°
2026-05-08 17:37 15.28633 38.90250 7544 ft 159 kts 254°
2026-05-08 17:37 15.28307 38.89036 7671 ft 185 kts 256°
2026-05-08 17:37 15.27984 38.87689 7972 ft 196 kts 257°
2026-05-08 17:38 15.27695 38.86351 8583 ft 192 kts 258°
2026-05-08 17:38 15.27462 38.84949 8825 ft 205 kts 267°
2026-05-08 17:38 15.27558 38.83427 9100 ft 215 kts 279°
2026-05-08 17:38 15.27706 38.81832 9376 ft 231 kts 275°
2026-05-08 17:39 15.27820 38.80132 9745 ft 244 kts 274°
2026-05-08 17:39 15.27916 38.78327 10089 ft 261 kts 274°
2026-05-08 17:39 15.28014 38.76407 10544 ft 271 kts 273°
2026-05-08 17:39 15.28116 38.74394 10902 ft 289 kts 274°
2026-05-08 17:40 15.28223 38.72271 11311 ft 304 kts 273°
2026-05-08 17:40 15.28320 38.70043 11683 ft 321 kts 273°
2026-05-08 17:40 15.28428 38.67663 12044 ft 338 kts 273°
2026-05-08 17:40 15.28542 38.65160 12424 ft 355 kts 273°
2026-05-08 17:41 15.28660 38.62576 12944 ft 367 kts 272°
2026-05-08 17:41 15.28780 38.59935 13714 ft 371 kts 273°
2026-05-08 17:41 15.28900 38.57278 14479 ft 375 kts 273°
2026-05-08 17:41 15.29024 38.54546 15211 ft 380 kts 274°
2026-05-08 17:42 15.29148 38.51811 15989 ft 384 kts 274°
2026-05-08 17:42 15.29273 38.49059 16714 ft 389 kts 274°
2026-05-08 17:42 15.29399 38.46287 17501 ft 392 kts 274°
2026-05-08 17:42 15.29528 38.43459 18327 ft 395 kts 274°
2026-05-08 17:43 15.29656 38.40605 19175 ft 397 kts 274°
2026-05-08 17:43 15.29784 38.37776 19995 ft 400 kts 274°
2026-05-08 17:43 15.29913 38.34882 20792 ft 403 kts 274°
2026-05-08 17:43 15.30041 38.32004 21525 ft 407 kts 273°
2026-05-08 17:44 15.30171 38.29091 22298 ft 409 kts 273°
2026-05-08 17:44 15.30303 38.26114 23021 ft 412 kts 272°
2026-05-08 17:44 15.30435 38.23164 23771 ft 414 kts 272°
2026-05-08 17:44 15.30566 38.20204 24472 ft 416 kts 271°
2026-05-08 17:45 15.30697 38.17222 25077 ft 420 kts 271°
2026-05-08 17:45 15.30829 38.14176 25697 ft 423 kts 271°
2026-05-08 17:45 15.30963 38.11146 26331 ft 425 kts 270°
2026-05-08 17:45 15.31096 38.08083 26932 ft 427 kts 270°
2026-05-08 17:46 15.31228 38.05008 27440 ft 430 kts 269°
2026-05-08 17:46 15.31363 38.01897 27959 ft 433 kts 269°
2026-05-08 17:46 15.31495 37.98821 28504 ft 435 kts 269°
2026-05-08 17:46 15.31630 37.95685 28997 ft 437 kts 268°
2026-05-08 17:47 15.31766 37.92503 29403 ft 443 kts 269°
2026-05-08 17:47 15.31900 37.89357 29995 ft 443 kts 268°
2026-05-08 17:47 15.32035 37.86144 30362 ft 449 kts 268°
2026-05-08 17:47 15.32127 37.83997 30798 ft 448 kts 268°
2026-05-08 17:48 15.32310 37.79733 31830 ft 442 kts 268°
2026-05-08 17:48 15.32442 37.76597 32336 ft 443 kts 268°
2026-05-08 17:48 15.32576 37.73399 33027 ft 441 kts 268°
2026-05-08 17:48 15.32708 37.70274 33961 ft 434 kts 268°
2026-05-08 17:49 15.32836 37.67203 34856 ft 428 kts 268°
2026-05-08 17:49 15.32962 37.64157 35694 ft 422 kts 268°
2026-05-08 17:49 15.33087 37.61150 35997 ft 419 kts 268°
2026-05-08 17:49 15.33211 37.58152 35983 ft 416 kts 268°
2026-05-08 17:50 15.33455 37.52166 35984 ft 418 kts 268°
2026-05-08 17:50 15.33701 37.46132 35976 ft 419 kts 268°
2026-05-08 17:51 15.33944 37.40140 35977 ft 418 kts 268°
2026-05-08 17:51 15.34186 37.34114 35989 ft 419 kts 267°
2026-05-08 17:52 15.34427 37.28114 35995 ft 418 kts 267°
2026-05-08 17:53 15.34784 37.19115 36007 ft 418 kts 267°
2026-05-08 17:53 15.35176 37.13090 35992 ft 420 kts 269°
2026-05-08 17:54 15.35610 37.07077 35982 ft 420 kts 269°
2026-05-08 17:54 15.36043 37.01063 35981 ft 419 kts 269°
2026-05-08 17:55 15.36475 36.95035 35984 ft 420 kts 269°
2026-05-08 17:55 15.36904 36.89019 35973 ft 420 kts 269°
2026-05-08 17:56 15.37330 36.83015 35960 ft 418 kts 269°
2026-05-08 17:56 15.37754 36.77009 35953 ft 419 kts 269°
2026-05-08 17:57 15.38176 36.71022 35946 ft 420 kts 269°
2026-05-08 17:57 15.38599 36.65005 35934 ft 419 kts 269°
2026-05-08 17:58 15.39019 36.58982 35919 ft 419 kts 269°
2026-05-08 17:58 15.39437 36.52972 35896 ft 419 kts 269°
2026-05-08 17:59 15.39852 36.46998 35883 ft 417 kts 269°
2026-05-08 17:59 15.40265 36.41002 35880 ft 419 kts 269°
2026-05-08 18:00 15.40679 36.34992 35878 ft 421 kts 268°
2026-05-08 18:00 15.41154 36.25997 35871 ft 417 kts 268°
2026-05-08 18:01 15.41451 36.20012 35866 ft 417 kts 268°
2026-05-08 18:01 15.41748 36.14006 35859 ft 418 kts 268°
2026-05-08 18:02 15.41997 36.08986 35860 ft 418 kts 268°
2026-05-08 18:02 15.42339 36.02009 35873 ft 416 kts 268°
2026-05-08 18:03 15.42629 35.96043 35870 ft 416 kts 267°
2026-05-08 18:03 15.42919 35.90063 35868 ft 416 kts 268°
2026-05-08 18:04 15.43207 35.84101 35865 ft 414 kts 267°
2026-05-08 18:04 15.43491 35.78157 35867 ft 416 kts 267°
2026-05-08 18:05 15.43775 35.72213 35864 ft 414 kts 267°
2026-05-08 18:05 15.44058 35.66226 35866 ft 415 kts 267°
2026-05-08 18:06 15.44338 35.60291 35863 ft 416 kts 267°
2026-05-08 18:06 15.44620 35.54297 35864 ft 414 kts 267°
2026-05-08 18:07 15.44895 35.48361 35865 ft 415 kts 268°
2026-05-08 18:07 15.45172 35.42405 35851 ft 415 kts 268°
2026-05-08 18:08 15.45446 35.36428 35849 ft 416 kts 267°
2026-05-08 18:08 15.45719 35.30478 35858 ft 416 kts 267°
2026-05-08 18:09 15.45992 35.24496 35858 ft 415 kts 267°
2026-05-08 18:09 15.46261 35.18521 35864 ft 416 kts 267°
2026-05-08 18:10 15.46530 35.12558 35867 ft 415 kts 267°
2026-05-08 18:10 15.46797 35.06589 35867 ft 416 kts 267°
2026-05-08 18:11 15.47062 35.00619 35873 ft 415 kts 268°
2026-05-08 18:11 15.47325 34.94671 35870 ft 415 kts 267°
2026-05-08 18:12 15.47587 34.88721 35866 ft 413 kts 267°
2026-05-08 18:12 15.47845 34.82792 35870 ft 415 kts 267°
2026-05-08 18:13 15.48106 34.76778 35860 ft 417 kts 267°
2026-05-08 18:13 15.48363 34.70825 35850 ft 414 kts 267°
2026-05-08 18:14 15.48617 34.64888 35849 ft 415 kts 267°
2026-05-08 18:14 15.48871 34.58911 35844 ft 416 kts 267°
2026-05-08 18:15 15.49126 34.52897 35843 ft 416 kts 267°
2026-05-08 18:15 15.49376 34.46942 35841 ft 414 kts 267°
2026-05-08 18:16 15.49624 34.41085 35838 ft 397 kts 267°
2026-05-08 18:16 15.49855 34.35457 35853 ft 394 kts 267°
2026-05-08 18:17 15.50089 34.29691 35431 ft 410 kts 266°
2026-05-08 18:17 15.50196 34.26749 35204 ft 406 kts 266°
2026-05-08 18:17 15.50264 34.23806 34706 ft 408 kts 265°
2026-05-08 18:18 15.50332 34.20877 34132 ft 409 kts 265°
2026-05-08 18:18 15.50400 34.17968 33569 ft 408 kts 265°
2026-05-08 18:18 15.50469 34.15018 33010 ft 407 kts 265°
2026-05-08 18:18 15.50536 34.12102 32507 ft 408 kts 265°
2026-05-08 18:19 15.50600 34.09181 32016 ft 410 kts 265°
2026-05-08 18:19 15.50667 34.06197 31520 ft 414 kts 266°
2026-05-08 18:19 15.50733 34.03219 31022 ft 417 kts 266°
2026-05-08 18:19 15.50800 34.00229 30515 ft 420 kts 266°
2026-05-08 18:20 15.50867 33.97184 29995 ft 421 kts 267°
2026-05-08 18:20 15.50935 33.94184 29487 ft 420 kts 268°
2026-05-08 18:20 15.51003 33.91153 28994 ft 416 kts 268°
2026-05-08 18:20 15.51068 33.88191 28473 ft 412 kts 268°
2026-05-08 18:21 15.51133 33.85230 27946 ft 409 kts 269°
2026-05-08 18:21 15.51196 33.82309 27431 ft 408 kts 269°
2026-05-08 18:21 15.51259 33.79398 26934 ft 408 kts 270°
2026-05-08 18:21 15.51322 33.76448 26426 ft 408 kts 270°
2026-05-08 18:22 15.51386 33.73515 25914 ft 405 kts 270°
2026-05-08 18:22 15.51447 33.70634 25429 ft 403 kts 270°
2026-05-08 18:22 15.51506 33.67748 24943 ft 404 kts 270°
2026-05-08 18:22 15.51567 33.64856 24455 ft 402 kts 271°
2026-05-08 18:23 15.51628 33.61954 23959 ft 399 kts 271°
2026-05-08 18:23 15.51688 33.59103 23490 ft 399 kts 272°
2026-05-08 18:23 15.51816 33.56228 23012 ft 399 kts 274°
2026-05-08 18:23 15.51962 33.53353 22502 ft 397 kts 274°
2026-05-08 18:24 15.52104 33.50521 21999 ft 395 kts 274°
2026-05-08 18:24 15.52244 33.47680 21500 ft 393 kts 274°
2026-05-08 18:24 15.52384 33.44867 21020 ft 392 kts 274°
2026-05-08 18:24 15.52521 33.42080 20544 ft 389 kts 274°
2026-05-08 18:25 15.52657 33.39296 20079 ft 389 kts 274°
2026-05-08 18:25 15.52794 33.36500 19609 ft 387 kts 274°
2026-05-08 18:25 15.52928 33.33753 19152 ft 384 kts 274°
2026-05-08 18:25 15.53062 33.30994 18693 ft 382 kts 274°
2026-05-08 18:26 15.53195 33.28227 18231 ft 382 kts 274°
2026-05-08 18:26 15.53327 33.25504 17770 ft 380 kts 274°
2026-05-08 18:26 15.53458 33.22772 17310 ft 378 kts 275°
2026-05-08 18:26 15.53588 33.20090 16869 ft 376 kts 274°
2026-05-08 18:27 15.53719 33.17384 16411 ft 374 kts 274°
2026-05-08 18:27 15.53804 33.15601 16099 ft 373 kts 274°
2026-05-08 18:27 15.53975 33.12037 15501 ft 370 kts 274°
2026-05-08 18:27 15.54103 33.09382 15053 ft 368 kts 273°
2026-05-08 18:28 15.54100 33.06766 14593 ft 365 kts 263°
2026-05-08 18:28 15.53455 33.04227 14138 ft 362 kts 245°
2026-05-08 18:28 15.52182 33.02036 13706 ft 357 kts 229°
2026-05-08 18:28 15.50545 33.00098 13272 ft 353 kts 226°
2026-05-08 18:29 15.48918 32.98222 12829 ft 352 kts 225°
2026-05-08 18:29 15.47260 32.96350 12372 ft 350 kts 225°
2026-05-08 18:29 15.45625 32.94520 11937 ft 348 kts 225°
2026-05-08 18:29 15.43961 32.92667 11497 ft 346 kts 225°
2026-05-08 18:30 15.42337 32.90864 11061 ft 345 kts 226°
2026-05-08 18:30 15.40694 32.89041 10627 ft 343 kts 226°
2026-05-08 18:30 15.39084 32.87259 10215 ft 341 kts 226°
2026-05-08 18:30 15.37475 32.85478 9940 ft 326 kts 226°
2026-05-08 18:31 15.35970 32.83812 9677 ft 309 kts 226°
2026-05-08 18:31 15.34517 32.82205 9471 ft 301 kts 226°
2026-05-08 18:31 15.33083 32.80620 9223 ft 299 kts 227°
2026-05-08 18:31 15.31671 32.79059 8954 ft 297 kts 227°
2026-05-08 18:32 15.30252 32.77491 8691 ft 298 kts 227°
2026-05-08 18:32 15.28842 32.75933 8441 ft 297 kts 227°
2026-05-08 18:32 15.27441 32.74386 8179 ft 295 kts 227°
2026-05-08 18:32 15.26031 32.72829 7920 ft 294 kts 227°
2026-05-08 18:33 15.24639 32.71292 7653 ft 294 kts 228°
2026-05-08 18:33 15.23231 32.69739 7449 ft 292 kts 228°
2026-05-08 18:33 15.21849 32.68213 7239 ft 292 kts 228°
2026-05-08 18:33 15.20567 32.66575 6976 ft 290 kts 244°
2026-05-08 18:34 15.20013 32.64628 6706 ft 283 kts 269°
2026-05-08 18:34 15.19935 32.62586 6355 ft 284 kts 272°
2026-05-08 18:34 15.19880 32.60563 6031 ft 284 kts 273°
2026-05-08 18:34 15.20176 32.58566 5679 ft 277 kts 296°
2026-05-08 18:35 15.21227 32.56980 5232 ft 265 kts 319°
2026-05-08 18:35 15.22697 32.55907 4782 ft 252 kts 345°
2026-05-08 18:35 15.24380 32.55723 4483 ft 239 kts
2026-05-08 18:35 15.25987 32.55700 4436 ft 218 kts 359°
2026-05-08 18:36 15.27453 32.55667 4464 ft 203 kts 359°
2026-05-08 18:36 15.28828 32.55643 4470 ft 186 kts 359°
2026-05-08 18:36 15.30045 32.55623 4456 ft 167 kts 359°
2026-05-08 18:36 15.31183 32.55606 4433 ft 158 kts 360°
2026-05-08 18:37 15.32297 32.55592 4467 ft 165 kts 360°
2026-05-08 18:37 15.33483 32.55577 4462 ft 169 kts
2026-05-08 18:37 15.34647 32.55563 4445 ft 166 kts 360°
2026-05-08 18:37 15.35805 32.55550 4451 ft 165 kts
2026-05-08 18:38 15.36965 32.55538 4451 ft 165 kts
2026-05-08 18:38 15.38130 32.55526 4446 ft 166 kts
2026-05-08 18:38 15.39284 32.55514 4448 ft 166 kts
2026-05-08 18:38 15.40446 32.55502 4346 ft 170 kts
2026-05-08 18:39 15.41624 32.55491 4135 ft 163 kts 360°
2026-05-08 18:39 15.42728 32.55480 3929 ft 154 kts 359°
2026-05-08 18:39 15.43775 32.55469 3737 ft 148 kts 359°
2026-05-08 18:39 15.44812 32.55459 3563 ft 147 kts 359°
2026-05-08 18:40 15.45840 32.55449 3389 ft 146 kts 359°
2026-05-08 18:40 15.46862 32.55439 3218 ft 147 kts 359°
2026-05-08 18:40 15.47896 32.55428 3052 ft 144 kts 359°
2026-05-08 18:40 15.48852 32.55418 2892 ft 133 kts 358°
2026-05-08 18:41 15.49747 32.55409 2702 ft 122 kts 358°
2026-05-08 18:41 15.50582 32.55401 2534 ft 119 kts 358°
2026-05-08 18:41 15.51416 32.55401 2401 ft 122 kts 359°
2026-05-08 18:41 15.52281 32.55400 2267 ft 123 kts 358°
2026-05-08 18:42 15.53138 32.55381 2089 ft 124 kts 358°
2026-05-08 18:42 15.53997 32.55363 1905 ft 124 kts 359°
2026-05-08 18:42 15.54866 32.55360 1748 ft 122 kts 359°
2026-05-08 18:42 15.55715 32.55358 1605 ft 121 kts 358°
2026-05-08 18:43 15.56564 32.55341 1482 ft 122 kts 358°
2026-05-08 18:43 15.57422 32.55336 1345 ft 124 kts 358°
2026-05-08 18:43 15.58285 32.55327 1278 ft 113 kts 358°
2026-05-08 18:43 15.58808 32.55318 1278 ft 38 kts 359°
2026-05-08 18:44 15.58977 32.55315 1278 ft 10 kts 359°
2026-05-08 18:44 15.59029 32.55289 1279 ft 6 kts 296°
2026-05-08 18:44 15.59031 32.55253 1279 ft 4 kts 269°
2026-05-08 18:44 15.59031 32.55225 1280 ft 3 kts 271°
2026-05-08 18:45 15.59031 32.55202 1280 ft 3 kts 271°
2026-05-08 18:45 15.59031 32.55182 1281 ft 1 kts 261°
2026-05-08 18:45 15.59026 32.55170 1281 ft 2 kts 240°
2026-05-08 18:45 15.59011 32.55156 1281 ft 3 kts 207°
2026-05-08 18:46 15.58975 32.55150 1280 ft 6 kts 186°
2026-05-08 18:46 15.58923 32.55150 1279 ft 8 kts 179°
2026-05-08 18:46 15.58873 32.55148 1278 ft 4 kts 200°
2026-05-08 18:46 15.58861 32.55124 1278 ft 4 kts 271°
2026-05-08 18:47 15.58862 32.55088 1277 ft 5 kts 271°
2026-05-08 18:47 15.58862 32.55079 1277 ft 0 kts 271°